Location: Hopewell Observatory
(38.8698°N, 77.6988°W)
Time: 07:25:48
(UTC-05:00)

Daily predictions for brighter satellites

Satellite Brightness Start Highest point End
(mag) Time Altitude Azimuth Time Altitude Azimuth Time Altitude Azimuth
Meteor 1-18 Rocket 4.4 17:11:11 10° S 17:16:37 53° E 17:22:12 10° NNE
Okean 1 4.1 17:13:58 10° SSE 17:17:36 32° E 17:21:15 10° NNE
Cosmos 1844 3.8 17:13:27 10° SSW 17:19:01 81° WNW 17:24:36 10° NNE
Abrixas 4.3 17:18:57 10° NNW 17:21:00 17° NNE 17:23:02 10° ENE
Cosmos 1536 4.2 17:17:26 10° NNW 17:21:19 43° W 17:25:10 10° SSW
OTV 4 3.5 17:24:20 10° WSW 17:26:01 14° SSW 17:27:41 10° S
Cosmos 1346 Rocket 3.7 17:25:10 10° SSE 17:28:32 28° E 17:31:54 10° NNE
ISS -1.0 17:30:13 10° WNW 17:32:15 15° NNW 17:34:19 10° NNE
PAYLOAD A 4.1 17:29:15 10° S 17:34:02 77° WSW 17:39:03 10° NNW
Cosmos 2278 Rocket 2.2 17:28:37 10° SSW 17:34:15 81° ESE 17:39:56 10° NNE
Cosmos 1544 Rocket 3.6 17:29:46 10° N 17:34:16 89° WSW 17:38:44 10° S
USA 116 4.5 17:31:01 10° NNE 17:36:27 87° ESE 17:41:31 10° SSW
COSMO-SKYMED 1 3.5 17:34:36 10° NE 17:38:22 28° E 17:42:07 10° SSE
SMAP 3.0 17:33:58 10° SSE 17:38:36 76° ENE 17:43:15 10° N
USA 234 3.5 17:35:38 10° NE 17:42:07 67° NW 17:48:33 10° WSW
SL-24 DEB 4.5 17:38:04 10° NNE 17:42:39 48° E 17:47:10 10° SSE
CZ-4 R/B 4.4 17:41:21 10° SSE 17:45:25 60° ENE 17:49:32 10° N
BREEZE M DEB (TANK) 4.0 17:45:21 10° NW 17:48:26 28° NNE 17:53:28 15° ENE
SL-8 R/B 4.2 17:44:01 10° WSW 17:48:40 51° NNW 17:52:28 15° NE
Genesis I 3.3 17:47:41 10° NNW 17:51:32 52° NE 17:55:21 10° SE
Cosmos 1536 Rocket 3.7 17:49:23 10° S 17:53:50 79° W 17:58:20 10° N
Nadezhda 3 Rocket 4.1 17:49:14 10° SSE 17:55:13 54° E 18:01:18 10° NNE
Cosmos 1025 Rocket 4.1 17:54:32 10° SE 17:58:03 24° E 17:59:27 20° ENE
Cosmos 1833 Rocket 3.2 17:53:06 10° N 17:58:16 35° ENE 18:03:22 10° SE
NOSS 3-3 (A) 4.3 17:52:34 10° SW 17:58:42 69° NW 18:05:21 10° NNE
NOSS 3-3 (C) 4.3 17:52:39 10° SW 17:58:48 69° NW 18:05:27 10° NNE
Cosmos 921 Rocket 3.3 17:56:23 10° S 18:00:25 44° E 18:03:30 16° NE
Cosmos 2082 Rocket 2.5 17:55:39 10° N 18:01:03 43° ENE 18:06:27 10° SE
EP 1 4.1 17:58:53 10° SSW 18:01:34 87° NW 18:02:42 29° NNE
YAOGAN 1 3.1 17:58:05 10° S 18:02:22 63° WSW 18:06:40 10° NNW
Cosmos 1238 Rocket 4.1 17:59:57 10° SW 18:02:34 29° WNW 18:05:19 10° NNW
SPOT 3 Rocket 4.1 17:57:53 10° S 18:03:01 61° WSW 18:08:09 10° NNW
MSX 3.8 17:57:29 10° SSE 18:03:14 84° ENE 18:09:01 10° NNW
CZ-4 R/B 3.0 18:00:02 10° SSW 18:03:57 39° W 18:07:51 10° NNW
GRACE-2 4.1 18:02:22 10° SSE 18:05:01 43° E 18:05:48 33° NE
GRACE-1 4.1 18:02:46 10° SSE 18:05:27 45° E 18:06:18 32° NE
Meteor 2-21 Rocket 4.5 17:59:26 10° N 18:05:32 57° E 18:11:33 10° SSE
Cosmos 1975 3.0 18:02:07 10° N 18:06:11 75° W 18:10:12 10° S
Cosmos 1743 3.2 18:02:58 10° N 18:06:37 38° E 18:10:13 10° SSE
ATLAS 2AS CENTAUR R/B 3.7 18:00:49 10° NW 18:08:37 57° WSW 18:15:50 10° SSE
GEOS 3 Rocket 4.2 18:06:32 20° E 18:09:18 33° NE 18:13:49 10° NNW
COSMOS 2487 2.3 18:07:08 10° NNW 18:10:44 79° ENE 18:14:18 10° SSE
Cosmos 1484 Rocket 2.5 18:07:07 10° SSE 18:10:49 68° ENE 18:14:32 10° N
Cosmos 1500 3.2 18:07:29 10° N 18:11:20 82° W 18:15:10 10° S
CZ-2C R/B 3.5 18:06:47 10° S 18:11:35 49° W 18:16:34 10° NNW
MONITOR-E 4.3 18:09:36 10° S 18:12:47 80° WSW 18:15:59 10° NNW
Meteor 1-28 Rocket 3.6 18:15:53 33° ENE 18:16:56 42° E 18:20:32 10° S
COSMOS 2441 4.5 18:14:05 10° S 18:18:56 79° WSW 18:23:51 10° NNW
Meteor 1-13 Rocket 4.2 18:13:45 10° S 18:19:24 80° E 18:25:13 10° NNE
Tiangong 1 1.0 18:16:29 10° W 18:19:30 64° NNW 18:19:54 55° NNE
ATLAS 3B CENTAUR R/B 4.4 18:03:11 10° WSW 18:24:40 50° S 18:31:14 17° ESE
Meteor 1-23 Rocket 4.5 18:20:55 10° SSE 18:26:18 44° E 18:29:14 25° NE
SKYMED 2 3.6 18:22:12 10° N 18:26:34 81° WNW 18:30:54 10° SSW
IDEFIX/ARIANE 42P 4.2 18:23:18 10° SSW 18:28:03 36° W 18:32:49 10° NNW
FALCON 9 R/B 3.8 18:04:12 10° WSW 18:31:02 69° S 18:35:31 28° ESE
Delta 2 Rocket 3.7 18:28:42 10° WSW 18:32:22 50° S 18:33:18 41° SE
Meteor 2-4 Rocket 3.5 18:30:29 10° S 18:35:46 62° E 18:38:54 24° NNE
Okean 1-7 Rocket 3.7 18:31:24 10° S 18:35:54 77° W 18:39:56 13° N
Meteor 2-9 Rocket 4.1 18:33:16 10° N 18:38:35 52° ENE 18:43:45 10° SSE
Cosmos 2369 Rocket 4.3 18:36:36 10° SE 18:36:42 10° SE 18:36:42 10° SE
Cosmos 1934 Rocket 3.9 18:42:02 10° N 18:48:15 69° E 18:54:30 10° SSE
Cosmos 1535 Rocket 4.4 18:45:36 10° N 18:51:55 88° W 18:58:07 10° S
NOSS 2-1 (D) 4.0 18:49:05 10° SW 18:52:48 50° NW 18:53:30 44° NNW
NOSS 2-1 (C) 4.0 18:49:45 10° SW 18:53:29 51° NW 18:54:09 46° NNW
Meteor 2-8 Rocket 4.3 18:56:50 10° S 19:02:54 86° E 19:06:34 26° N
BREEZE M DEB (TANK) 3.5 19:02:55 10° WSW 19:08:45 39° NW 19:08:45 39° NW
Cosmos 1605 Rocket 3.9 19:21:32 10° N 19:27:51 84° W 19:34:02 10° S
CZ-3B DEB 4.3 19:23:40 10° WNW 19:29:00 32° N 19:31:38 28° NNE
Cosmos 2056 Rocket 4.3 19:27:07 10° SW 19:32:20 50° WNW 19:32:41 49° NW
Cosmos 1833 Rocket 4.4 19:37:11 10° NW 19:42:03 31° WSW 19:46:54 10° SSW
NOSS 3-4 (A) 3.9 19:37:32 10° NW 19:44:37 75° WSW 19:45:08 72° SSW
NOSS 3-4 (C) 3.8 19:37:39 10° NW 19:44:44 76° WSW 19:45:09 73° SSW
Cosmos 2082 Rocket 4.3 19:40:20 10° NW 19:44:49 25° WSW 19:49:20 10° SSW
